Location: Shandelee
(41.8790°N, 74.8713°W)
Time: 13:44:00
(UTC+00:00)

Cosmos 2369 - Pass Details

Date: 29 October 2020
Orbit: 841 x 854 km, 71.0° (Epoch: 01 December)

Event Time Altitude Azimuth Distance (km) Brightness Sun altitude
Rises 23:30:59 0° 202° (SSW) 3,407 7.2 -18.0°
Reaches altitude 10° 23:33:25 10° 203° (SSW) 2,474 6.4 -18.5°
Maximum altitude 23:39:07 89° 288° (WNW) 857 3.7 -19.6°
Drops below altitude 10° 23:44:51 10° 24° (NNE) 2,483 5.9 -20.6°
Enters shadow 23:45:14 - 24° (NNE) 2,630 6.0 -20.7°
